Waukesha, WI

9:38 PM CST on January 23, 2017 (GMT -0600)
Waukesha County

Weather History for KUES - March, 2014

Change the Weather History Date:

Thursday, March 13, 2014

  Actual Average Record
Temperature  
Mean Temperature 20 °F -  
Max Temperature 32 °F 38 °F 68 °F (2007)
Min Temperature 8 °F 24 °F 3 °F (1950)
Degree Days  
Heating Degree Days 45    
Moisture  
Dew Point 10 °F    
Average Humidity 74    
Maximum Humidity 86    
Minimum Humidity 64    
Precipitation  
Precipitation 0.00 in - - ()
Sea Level Pressure  
Sea Level Pressure 30.02 in    
Wind  
Wind Speed 3 mph (SSW)    
Max Wind Speed 20 mph    
Max Gust Speed 28 mph    
Visibility 10 miles    
Events      
Averages and records for this station are not official NWS values.
T = Trace of Precipitation, MM = Missing Value Source: NWS Daily Summary

Daily Weather History Graph

Daily Weather History Graph

Search for Another Location

Airport or City:

Trip Planner

Search our weather history database for the weather conditions in past years. The results will help you decide how hot, cold, wet, or windy it might be!

Date:

Astronomy

Mar. 13, 2014 Rise Set
Actual Time 7:08 AM CDT 6:56 PM CDT
Civil Twilight 6:40 AM CDT 7:25 PM CDT
Nautical Twilight 6:07 AM CDT 7:58 PM CDT
Astronomical Twilight 5:33 AM CDT 8:31 PM CDT
Moon 4:19 PM CDT (3/13) 5:18 AM CDT (3/13)
Length of Visible Light 12h 45m
Length of Day
11h 48m
Waxing Gibbous, 91% of the Moon is Illuminated
Mar 13
Waxing Gibbous
Mar 16
Full
Mar 23
Last Quarter
Mar 30
New
Apr 7
First Quarter

Hourly Weather History & Observations

Time (CDT) Temp. Windchill Dew Point Humidity Pressure Visibility Wind Dir Wind Speed Gust Speed Precip Events Conditions
12:15 AM 10.4 °F - 3.2 °F 73% 30.10 in 10.0 mi Calm Calm - N/A   Clear
12:35 AM 10.4 °F - 3.2 °F 73% 30.10 in 10.0 mi Calm Calm - N/A   Clear
12:55 AM 10.4 °F - 3.2 °F 73% 30.10 in 10.0 mi Calm Calm - N/A   Clear
1:15 AM 10.4 °F - 3.2 °F 73% 30.09 in 10.0 mi Calm Calm - N/A   Clear
1:35 AM 10.4 °F - 5.0 °F 79% 30.09 in 10.0 mi Calm Calm - N/A   Clear
1:55 AM 10.4 °F - 3.2 °F 73% 30.09 in 10.0 mi Calm Calm - N/A   Clear
2:15 AM 10.4 °F - 3.2 °F 73% 30.09 in 10.0 mi Calm Calm - N/A   Clear
2:35 AM 10.4 °F - 5.0 °F 79% 30.08 in 10.0 mi Calm Calm - N/A   Clear
2:55 AM 10.4 °F - 3.2 °F 73% 30.08 in 10.0 mi Calm Calm - N/A   Clear
3:15 AM 8.6 °F - 3.2 °F 79% 30.08 in 10.0 mi Calm Calm - N/A   Clear
3:35 AM 8.6 °F - 5.0 °F 85% 30.08 in 10.0 mi Calm Calm - N/A   Clear
3:55 AM 8.6 °F - 3.2 °F 79% 30.07 in 10.0 mi Calm Calm - N/A   Clear
4:15 AM 12.2 °F - 3.2 °F 67% 30.07 in 10.0 mi Calm Calm - N/A   Clear
4:35 AM 10.4 °F - 3.2 °F 73% 30.06 in 10.0 mi Calm Calm - N/A   Clear
4:55 AM 10.4 °F - 3.2 °F 73% 30.07 in 10.0 mi Calm Calm - N/A   Clear
5:15 AM 10.4 °F - 5.0 °F 79% 30.07 in 10.0 mi Calm Calm - N/A   Clear
5:35 AM 10.4 °F - 5.0 °F 79% 30.08 in 10.0 mi Calm Calm - N/A   Clear
5:45 AM 8.6 °F 2.0 °F 3.2 °F 79% 30.08 in 10.0 mi SSW 3.5 mph - N/A   Clear
6:45 AM 10.4 °F 4.0 °F 3.2 °F 73% 30.07 in 10.0 mi SSW 3.5 mph - N/A   Scattered Clouds
7:45 AM 10.4 °F 2.2 °F 3.2 °F 73% 30.07 in 10.0 mi SSW 4.6 mph - N/A   Clear
8:45 AM 15.8 °F 3.4 °F 6.8 °F 68% 30.07 in 10.0 mi SSW 10.4 mph - N/A   Scattered Clouds
9:45 AM 19.4 °F 7.9 °F 10.4 °F 68% 30.06 in 10.0 mi South 10.4 mph - N/A   Scattered Clouds
10:45 AM 21.2 °F 10.1 °F 12.2 °F 68% 30.04 in 10.0 mi South 10.4 mph - N/A   Overcast
11:45 AM 23.0 °F 13.1 °F 15.8 °F 74% 30.02 in 10.0 mi South 9.2 mph - N/A   Overcast
12:45 PM 24.8 °F 15.3 °F 15.8 °F 69% 29.98 in 10.0 mi South 9.2 mph 17.3 mph N/A   Overcast
1:45 PM 26.6 °F 16.2 °F 17.6 °F 69% 29.95 in 10.0 mi South 11.5 mph 20.7 mph N/A   Overcast
2:45 PM 30.2 °F 20.8 °F 19.4 °F 64% 29.90 in 10.0 mi South 11.5 mph 23.0 mph N/A   Overcast
3:45 PM 32.0 °F 20.1 °F 21.2 °F 64% 29.89 in 10.0 mi SSW 19.6 mph 27.6 mph N/A   Scattered Clouds
4:45 PM 32.0 °F 22.5 °F 21.2 °F 64% 29.89 in 10.0 mi SSW 12.7 mph 23.0 mph N/A   Scattered Clouds
5:45 PM 32.0 °F 22.5 °F 24.8 °F 75% 29.86 in 10.0 mi SSW 12.7 mph - N/A   Scattered Clouds
6:45 PM 30.2 °F 21.9 °F 24.8 °F 80% 29.86 in 10.0 mi South 9.2 mph 17.3 mph N/A   Clear
7:45 PM 30.2 °F 21.9 °F 26.6 °F 86% 29.85 in 10.0 mi SSW 9.2 mph - N/A   Clear
8:45 PM 30.2 °F 21.3 °F 26.6 °F 86% 29.83 in 10.0 mi SSW 10.4 mph - N/A   Clear